Ballina Observation History
Time Wind Speed Temp Pressure Rel. Hum Rain
10/10:30am WSW 3-5 kts 17.1°c 1028.0 hPa 87% 0.0mm
10/10:00am WSW 5-7 kts 16.2°c 1028.1 hPa 88% 0.0mm
10/09:30am WSW 7-9 kts 16.2°c 1028.1 hPa 90% 0.0mm
10/09:00am WSW 8-10 kts 15.7°c 1028.1 hPa 93% 3.2mm
10/08:30am W 5-7 kts 14.8°c 1027.9 hPa 96% 3.2mm
10/08:00am W 4-6 kts 13.9°c 1028.1 hPa 97% 3.2mm
10/07:56am W 5-6 kts 13.8°c 1028.1 hPa 97% 3.2mm
10/07:33am WSW 7-8 kts 13.2°c 1028.5 hPa 96% 2.6mm
10/07:30am WSW 6-8 kts 13.3°c 1028.5 hPa 97% 2.0mm
10/07:00am N 6-7 kts 12.4°c 1027.6 hPa 97% 2.0mm
10/06:30am N 2-5 kts 12.7°c 1027.8 hPa 97% 2.0mm
10/06:00am N 1-3 kts 12.4°c 1027.4 hPa 97% 2.0mm
10/05:30am NNE 4-6 kts 12.5°c 1027.3 hPa 97% 2.0mm
10/05:00am NNE 1-5 kts 12.6°c 1027.2 hPa 97% 2.0mm
10/04:30am NNE 5-7 kts 12.6°c 1027.0 hPa 96% 2.0mm
10/04:00am NNE 6-7 kts 13.2°c 1027.0 hPa 97% 2.0mm
10/03:50am NE 3-7 kts 13.2°c 1026.8 hPa 97% 2.0mm
10/03:30am NE 5-10 kts 13.1°c 1027.4 hPa 97% 1.8mm
10/03:27am NE 7-11 kts 13.1°c 1027.4 hPa 97% 1.8mm
10/03:00am NNE 3-4 kts 12.6°c 1027.2 hPa 97% 1.4mm
10/02:30am CALM 0 kts 12.0°c 1027.1 hPa 97% 1.4mm
10/02:00am CALM 0 kts 12.4°c 1027.5 hPa 97% 1.4mm
10/01:30am CALM 0 kts 12.0°c 1027.5 hPa 97% 1.4mm
10/01:28am CALM 0 kts 12.2°c 1027.5 hPa 97% 1.4mm
10/01:00am CALM 0 kts 11.9°c 1027.8 hPa 97% 1.4mm
10/12:30am CALM 0 kts 12.0°c 1028.0 hPa 96% 1.4mm
10/12:00am CALM 0-2 kts 12.4°c 1028.1 hPa 96% 1.4mm
Time Wind Speed Temp Pressure Rel. Hum Rain
09/11:38pm NNE 2-4 kts 12.8°c 1028.3 hPa 97% 1.4mm
09/11:30pm CALM 0 kts 12.5°c 1028.4 hPa 96% 1.4mm
09/11:28pm CALM 0 kts 12.4°c 1028.4 hPa 96% 1.4mm
09/11:00pm CALM 0 kts 13.0°c 1028.2 hPa 96% 1.4mm
09/10:30pm NNE 1-4 kts 13.0°c 1028.2 hPa 96% 1.4mm
09/10:00pm NNE 3-5 kts 13.3°c 1028.4 hPa 96% 1.4mm
09/09:30pm NNE 4-6 kts 13.7°c 1028.6 hPa 95% 1.4mm
09/09:00pm NNE 4-5 kts 13.7°c 1028.8 hPa 95% 1.4mm
09/08:30pm NNE 5-6 kts 13.8°c 1028.6 hPa 95% 1.4mm
09/08:00pm NNE 3-4 kts 13.8°c 1028.3 hPa 95% 1.4mm
09/07:30pm NNE 2-4 kts 14.2°c 1028.1 hPa 95% 1.4mm
09/07:00pm NNE 1-5 kts 14.4°c 1028.2 hPa 95% 1.4mm
09/06:30pm NNE 2-3 kts 14.3°c 1028.1 hPa 95% 1.4mm
09/06:00pm NNE 4 kts 14.4°c 1027.8 hPa 94% 1.4mm
09/05:30pm NNE 3-4 kts 14.9°c 1027.7 hPa 94% 1.4mm
09/05:00pm NNE 5-6 kts 15.1°c 1027.4 hPa 93% 1.4mm
09/04:30pm E 2-4 kts 15.5°c 1027.7 hPa 90% 1.4mm
09/04:03pm CALM 0-3 kts 15.2°c 1027.9 hPa 92% 1.4mm
09/04:00pm CALM 0 kts 15.3°c 1028.0 hPa 93% 1.4mm
09/03:30pm ENE 10-14 kts 15.3°c 1028.1 hPa 91% 1.0mm
09/03:27pm ENE 10-14 kts 15.4°c 1028.2 hPa 91% 0.8mm
09/03:26pm NE 10-14 kts 15.6°c 1028.1 hPa 91% 0.8mm
09/03:09pm NE 7-10 kts 16.5°c 1028.0 hPa 87% 0.8mm
09/03:00pm NNE 3-5 kts 17.1°c 1028.0 hPa 85% 0.8mm
09/02:30pm NNE 5-7 kts 16.7°c 1027.9 hPa 89% 0.8mm
09/02:00pm NNE 2-6 kts 17.6°c 1028.1 hPa 80% 0.8mm
09/01:30pm NNE 2-4 kts 17.3°c 1028.0 hPa 83% 0.8mm
09/01:21pm NNE 1-5 kts 17.3°c 1028.0 hPa 86% 0.8mm
09/01:00pm NE 9-12 kts 16.3°c 1028.3 hPa 88% 0.8mm
09/12:53pm NE 10-15 kts 16.6°c 1028.4 hPa 83% 0.6mm
09/12:30pm E 5-7 kts 18.0°c 1028.5 hPa 68% 0.6mm
09/12:00pm S 6-8 kts 18.5°c 1029.0 hPa 69% 0.6mm
09/11:30am SSW 6-8 kts 18.2°c 1029.4 hPa 80% 0.6mm
09/11:00am S 6-9 kts 17.4°c 1029.8 hPa 85% 0.6mm
09/10:30am WSW 4-6 kts 16.8°c 1030.2 hPa 89% 0.6mm
09/10:02am SW 8-10 kts 15.8°c 1030.1 hPa 93% 0.6mm
09/10:00am SW 8-10 kts 15.6°c 1030.1 hPa 93% 0.6mm
09/09:44am W 7-9 kts 15.0°c 1030.4 hPa 94% 0.4mm
09/09:32am WNW 5-8 kts 14.6°c 1030.6 hPa 94% 0.4mm
09/09:30am WNW 5-7 kts 14.7°c 1030.6 hPa 95% 0.4mm
09/09:03am WNW 7-9 kts 14.1°c 1030.7 hPa 93% 0.0mm
09/09:00am WNW 7-9 kts 14.1°c 1030.5 hPa 93% 4.4mm
09/08:30am W 6-7 kts 14.1°c 1029.6 hPa 94% 4.4mm
09/08:00am W 5-7 kts 13.5°c 1029.5 hPa 94% 4.4mm
09/07:30am W 4-5 kts 13.2°c 1029.4 hPa 95% 4.4mm
09/07:00am W 3-5 kts 12.7°c 1029.0 hPa 96% 4.4mm
09/06:30am W 5-6 kts 12.7°c 1028.6 hPa 96% 4.4mm
09/06:00am W 6-7 kts 12.6°c 1028.2 hPa 96% 4.4mm
09/05:30am W 8-10 kts 12.5°c 1027.9 hPa 96% 4.4mm
09/05:00am W 5-7 kts 12.4°c 1027.8 hPa 97% 4.4mm
09/04:30am W 4-5 kts 12.4°c 1027.6 hPa 96% 4.4mm
09/04:00am W 4-6 kts 11.7°c 1027.4 hPa 96% 4.4mm
09/03:30am W 4 kts 12.0°c 1027.4 hPa 96% 4.4mm
09/03:00am W 3-5 kts 12.0°c 1027.5 hPa 95% 4.4mm
09/02:30am W 7-9 kts 12.7°c 1027.5 hPa 95% 4.2mm
09/02:00am WNW 8-10 kts 13.1°c 1027.7 hPa 95% 4.2mm
09/01:30am NNW 7-10 kts 13.3°c 1027.7 hPa 95% 4.2mm
09/01:00am WSW 9-11 kts 13.4°c 1028.0 hPa 95% 4.2mm
09/12:30am WSW 11-13 kts 13.7°c 1028.2 hPa 95% 4.2mm
09/12:00am NW 7-9 kts 13.6°c 1028.4 hPa 95% 4.2mm
Time Wind Speed Temp Pressure Rel. Hum Rain
08/11:30pm NW 5-6 kts 13.5°c 1028.5 hPa 95% 4.2mm
08/11:00pm WNW 5-8 kts 13.8°c 1028.5 hPa 95% 4.2mm
08/10:30pm W 6-7 kts 13.7°c 1028.4 hPa 95% 4.2mm
08/10:00pm W 6-8 kts 13.9°c 1028.6 hPa 95% 4.2mm
08/09:30pm SSW 3-6 kts 14.2°c 1028.9 hPa 94% 4.2mm
08/09:00pm WSW 7-9 kts 14.1°c 1028.5 hPa 94% 4.2mm
08/08:30pm WSW 6-8 kts 14.1°c 1028.5 hPa 95% 4.2mm
08/08:00pm SW 8-11 kts 14.2°c 1028.1 hPa 95% 4.2mm
08/07:30pm WSW 8-12 kts 14.2°c 1028.0 hPa 95% 3.8mm
08/07:00pm WSW 7-9 kts 14.2°c 1027.8 hPa 95% 3.8mm
08/06:30pm W 5-7 kts 14.4°c 1027.8 hPa 96% 3.8mm
08/06:00pm W 7-8 kts 14.4°c 1027.4 hPa 96% 3.6mm
08/05:30pm SW 6-8 kts 14.7°c 1027.2 hPa 96% 3.6mm
08/05:29pm SW 6-8 kts 14.7°c 1027.2 hPa 96% 3.6mm
08/05:00pm SSW 7-11 kts 14.9°c 1027.1 hPa 96% 3.2mm
08/04:55pm SSW 6-8 kts 14.9°c 1027.1 hPa 96% 3.0mm
08/04:46pm SSW 6-10 kts 15.0°c 1027.0 hPa 95% 2.8mm
08/04:30pm SW 7-9 kts 15.1°c 1026.9 hPa 95% 2.8mm
08/04:26pm SW 7-9 kts 15.1°c 1026.8 hPa 95% 2.8mm
08/04:09pm SSW 7-11 kts 15.1°c 1026.8 hPa 95% 2.8mm
08/04:00pm SSW 7-10 kts 15.2°c 1026.7 hPa 95% 2.8mm
08/03:37pm WSW 8-11 kts 15.0°c 1026.6 hPa 96% 2.8mm
08/03:30pm WSW 8-11 kts 15.0°c 1026.5 hPa 95% 2.8mm
08/03:22pm SW 8-11 kts 15.1°c 1026.6 hPa 95% 2.6mm
08/03:11pm SW 9-12 kts 14.9°c 1026.6 hPa 95% 2.6mm
08/03:00pm WSW 8-10 kts 15.0°c 1026.5 hPa 96% 2.6mm
08/02:43pm WSW 7-9 kts 14.6°c 1026.6 hPa 95% 2.4mm
08/02:30pm WSW 9-11 kts 14.6°c 1026.6 hPa 95% 2.4mm
08/02:17pm WSW 8-11 kts 14.7°c 1026.6 hPa 96% 2.4mm
08/02:02pm WSW 8-11 kts 14.6°c 1026.6 hPa 95% 2.4mm
08/02:00pm WSW 9-11 kts 14.5°c 1026.6 hPa 95% 2.4mm
08/01:55pm W 9-11 kts 14.3°c 1026.7 hPa 95% 2.4mm
08/01:39pm WSW 9-11 kts 14.0°c 1026.8 hPa 95% 2.4mm
08/01:30pm WSW 8-11 kts 14.0°c 1026.9 hPa 95% 2.4mm
08/01:18pm SW 9-12 kts 14.0°c 1026.9 hPa 94% 2.4mm
08/01:15pm SW 9-12 kts 13.9°c 1026.9 hPa 94% 2.4mm
08/01:00pm WSW 9-11 kts 14.0°c 1027.0 hPa 95% 2.4mm
08/12:57pm WSW 9-11 kts 14.2°c 1027.1 hPa 96% 2.4mm
08/12:30pm WSW 10-14 kts 13.8°c 1027.3 hPa 94% 1.4mm
08/12:00pm WSW 10-13 kts 14.6°c 1027.5 hPa 93% 0.4mm
08/11:43am SW 10-15 kts 14.9°c 1027.7 hPa 87% 0.0mm
08/11:30am SW 10-14 kts 15.6°c 1027.9 hPa 83% 0.0mm
08/11:00am WSW 14-18 kts 15.1°c 1028.1 hPa 84% 0.0mm
08/10:36am SW 12-15 kts 14.6°c 1028.5 hPa 84% 0.0mm
08/10:30am WSW 11-15 kts 14.9°c 1028.4 hPa 85% 0.0mm
08/10:19am WSW 10-14 kts 14.6°c 1028.5 hPa 84% 0.0mm
08/10:00am WSW 11-16 kts 15.4°c 1028.4 hPa 79% 0.0mm
08/09:30am SW 11-17 kts 15.6°c 1028.4 hPa 75% 0.0mm
08/09:00am WSW 9-12 kts 14.9°c 1028.3 hPa 73% 0.0mm
08/08:30am WSW 9-12 kts 14.3°c 1028.1 hPa 76% 0.0mm
08/08:00am WSW 7-9 kts 13.0°c 1027.8 hPa 80% 0.0mm
08/07:30am W 9-11 kts 11.4°c 1027.5 hPa 84% 0.0mm
08/07:00am WSW 9-11 kts 11.0°c 1027.3 hPa 83% 0.0mm
08/06:30am W 8-9 kts 10.4°c 1027.1 hPa 86% 0.0mm
08/06:00am W 7-9 kts 10.2°c 1026.8 hPa 85% 0.0mm
08/05:30am WSW 7-8 kts 10.3°c 1026.4 hPa 86% 0.0mm
08/05:00am WSW 7-8 kts 10.1°c 1026.3 hPa 86% 0.0mm
08/04:30am WSW 6-7 kts 10.6°c 1026.2 hPa 85% 0.0mm
08/04:00am WSW 5-6 kts 9.7°c 1026.2 hPa 89% 0.0mm
08/03:30am WSW 4-5 kts 9.7°c 1026.4 hPa 89% 0.0mm
08/03:00am WSW 6-7 kts 10.2°c 1026.5 hPa 88% 0.0mm
08/02:30am WSW 7-8 kts 11.5°c 1026.7 hPa 85% 0.0mm
08/02:00am WSW 7-8 kts 11.5°c 1026.9 hPa 85% 0.0mm
08/01:30am WSW 8-10 kts 11.8°c 1027.0 hPa 84% 0.0mm
08/01:00am WSW 8-10 kts 11.7°c 1027.2 hPa 85% 0.0mm
08/12:30am W 7-9 kts 11.3°c 1027.2 hPa 88% 0.0mm
08/12:00am WSW 6-7 kts 11.3°c 1027.1 hPa 87% 0.0mm